CAPE
65 258 375 446 486 533 513 461 351 244 274 300 502 349 587 679 779 845 926 970 1016 1059 1124 1218 1258 1274 1280 1258 1229 1231 1216 1180 1162 1168 1136 1126 1084 1042 1048 1048 937 922 1153 1459 1685 1815 1858 1879 1970 2002 1984 2083 2364 2531 2571 2597 2646 2718 2762 2726 2708 2718 2706
51 201 306 409 484 545 558 535 490 234 268 297 302 352 449 530 731 806 894 962 1034 1058 1088 1187 1247 1268 1272 1251 1227 1222 1214 1186 1164 1157 1134 1106 1099 1057 1016 960 916 842 917 1258 1477 1689 1762 1788 1892 1960 1974 2021 2241 2460 2612 2658 2675 2728 2798 2851 2859 2840 2829
46 117 278 392 477 518 576 579 550 246 268 303 325 432 532 530 634 763 857 934 1031 1065 1071 1138 1218 1270 1268 1261 1231 1230 1224 1208 1175 1150 1140 1106 1104 1099 1038 1004 963 879 787 1059 1295 1499 1633 1688 1776 1914 1950 1984 2107 2305 2534 2682 2734 2762 2818 2905 2943 2929 2891
55 146 281 383 436 504 573 586 578 545 304 304 330 390 456 562 579 714 826 892 984 1058 1068 1098 1176 1239 1264 1260 1234 1224 1224 1210 1192 1171 1143 1084 1057 1142 1110 1068 1074 1011 908 950 1211 1376 1595 1659 1709 1827 2130 1956 2035 2190 2351 2534 2676 2760 2824 2854 2884 2908 2898
88 156 344 477 539 486 576 596 584 361 555 585 336 442 485 570 641 726 805 859 918 1012 1042 1072 1135 1198 1239 1258 1246 1238 1232 1224 1225 1178 1113 1083 1019 1083 1220 1166 1134 1074 1086 982 1202 1438 1583 1693 1700 1764 1887 1952 1990 2112 2252 2372 2501 2636 2740 2787 2818 2857 2918
105 234 294 521 609 647 655 646 637 615 608 628 654 605 584 607 726 756 809 877 902 961 1016 1054 1110 1163 1208 1223 1222 1204 1199 1213 1207 1173 1097 1063 1050 1013 1214 1329 1157 1084 1175 1181 1252 1488 1607 1708 1719 1734 1804 1926 1980 2040 2154 2270 2388 2495 2586 2672 2700 2741 2806
88 242 391 522 663 733 754 735 699 697 681 681 672 654 608 654 755 796 820 897 932 950 1028 1060 1071 1113 1156 1170 1191 1176 1171 1171 1175 1166 1105 1053 1064 1052 1027 1269 1404 1200 1179 1302 1335 1507 1652 1738 1763 1754 1770 1883 1964 2005 2067 2147 2260 2379 2476 2519 2558 2584 2642
120 197 364 494 655 776 832 822 791 772 754 735 734 692 649 749 808 858 863 915 971 962 1009 1075 1091 1101 1125 1128 1141 1155 1136 1119 1121 1133 1128 1078 1087 1127 1072 1035 1292 1500 1411 1372 1480 1571 1695 1754 1813 1808 1795 1824 1916 1962 2019 2085 2142 2255 2374 2435 2455 2479 2479
170 216 337 475 612 772 854 884 866 836 813 797 795 758 738 837 904 952 948 963 1041 1034 1031 1082 1128 1121 1132 1126 1127 1131 1128 1105 1086 1100 1128 1121 1114 1151 1169 1122 1096 1338 1560 1552 1507 1646 1770 1819 1849 1887 1858 1817 1836 1925 1994 2077 2136 2211 2314 2366 2398 2432 2440
196 269 318 474 584 730 853 907 923 868 862 849 844 829 779 924 968 1044 1083 1082 1122 1137 1108 1091 1160 1200 1210 1187 1147 1143 1148 1144 1124 1107 1133 1154 1154 1172 1222 1235 1205 1295 1506 1608 1576 1592 1792 1901 1948 1964 1971 1905 1854 1886 1984 2072 2152 2221 2301 2365 2381 2391 2423
212 432 479 519 552 690 816 887 937 959 964 949 929 913 851 988 1048 1124 1213 1233 1248 1266 1235 1199 1199 1258 1299 1285 1239 1198 1192 1194 1181 1167 1158 1179 1191 1211 1246 1309 1330 1364 1530 1641 1662 1613 1640 1881 2020 2077 2078 2053 1978 1936 1970 2066 2165 2240 2301 2364 2406 2408 2412
225 484 578 610 631 706 797 880 953 1025 1054 1024 993 954 953 1080 1143 1217 1311 1372 1398 1421 1400 1364 1319 1326 1361 1392 1375 1323 1271 1252 1239 1219 1206 1210 1226 1240 1258 1314 1378 1413 1540 1696 1778 1757 1666 1670 1936 2109 2189 2184 2144 2068 2031 2063 2152 2255 2313 2360 2406 2450 2465
213 507 642 693 718 769 838 883 958 1028 1080 1092 1070 1011 1093 1206 1270 1326 1408 1492 1541 1580 1572 1551 1502 1468 1448 1477 1495 1487 1423 1357 1326 1290 1271 1278 1270 1265 1269 1285 1353 1421 1469 1634 1824 1898 1853 1756 1739 1933 2104 2219 2260 2238 2190 2168 2189 2246 2319 2369 2398 2439 2488
581 465 611 699 744 803 870 952 1015 1048 1098 1122 1111 1096 1136 1298 1413 1468 1524 1603 1675 1718 1740 1718 1682 1646 1607 1574 1575 1600 1595 1537 1460 1422 1387 1348 1362 1344 1323 1314 1314 1378 1424 1469 1677 1912 2019 1980 1856 1803 1900 2025 2112 2227 2283 2293 2296 2302 2316 2357 2413 2447 2468
404 440 548 674 787 844 905 984 1042 1094 1133 1159 1155 1118 1149 1335 1482 1600 1674 1730 1804 1860 1885 1877 1843 1816 1779 1731 1702 1685 1699 1696 1649 1603 1566 1508 1468 1462 1423 1392 1363 1362 1381 1401 1436 1616 1944 2150 2124 2001 1915 1921 1954 1977 2008 2070 2152 2258 2324 2366 2422 2470 2499
444 461 537 661 794 881 929 985 1037 1093 1139 1194 1202 1174 1177 1330 1501 1648 1784 1878 1948 1990 2006 1998 1982 1962 1936 1914 1871 1829 1798 1794 1796 1767 1737 1716 1644 1602 1572 1521 1477 1442 1409 1407 1396 1394 1500 1802 2148 2253 2194 2097 2048 2041 2054 2046 2013 2035 2155 2308 2408 2492 2538
446 507 572 652 766 869 928 987 1039 1056 1110 1194 1245 1230 1214 1298 1478 1640 1794 1931 2046 2116 2164 2150 2140 2108 2093 2074 2042 2019 1985 1946 1929 1909 1904 1884 1831 1707 1721 1695 1641 1580 1512 1458 1441 1421 1386 1390 1562 1950 2262 2322 2252 2172 2134 2188 2214 2171 2125 2191 2351 2472 2577
422 526 596 665 745 830 892 980 1030 1066 1110 1174 1254 1274 1260 1284 1397 1575 1780 1938 2075 2198 2308 2330 2299 2260 2229 2216 2206 2195 2165 2137 2106 2077 2060 2034 1999 1901 1813 1804 1786 1745 1687 1616 1549 1496 1452 1412 1385 1416 1636 1996 2259 2316 2242 2183 2225 2348 2387 2359 2340 2394 2500
444 550 625 698 760 814 886 969 1038 1094 1148 1179 1235 1294 1320 1352 1438 1566 1717 1887 2037 2192 2358 2465 2479 2442 2400 2376 2369 2340 2319 2301 2267 2242 2218 2197 2140 2085 2012 1892 1859 1832 1795 1757 1699 1630 1583 1512 1437 1392 1372 1402 1606 1950 2225 2282 2231 2226 2333 2468 2508 2492 2459
428 552 633 715 778 845 912 964 1017 1090 1196 1254 1278 1319 1390 1495 1582 1650 1712 1833 2005 2196 2365 2519 2599 2614 2585 2558 2523 2489 2454 2419 2394 2378 2362 2325 2336 2336 2288 2190 2031 1887 1850 1810 1763 1740 1702 1642 1581 1504 1425 1360 1336 1390 1572 1852 2079 2202 2232 2254 2350 2476 2510
445 573 663 711 781 858 926 967 998 1073 1253 1339 1364 1427 1596 1724 1796 1844 1897 1987 2116 2232 2391 2550 2677 2741 2750 2732 2677 2623 2586 2560 2529 2507 2483 2532 2572 2562 2514 2440 2352 2250 2116 1924 1841 1798 1752 1720 1688 1641 1554 1463 1391 1366 1380 1464 1639 1893 2071 2157 2194 2257 2410
1482 694 665 687 771 864 919 959 993 1080 1267 1428 1507 1615 1894 2150 2223 2230 2232 2242 2283 2334 2451 2629 2767 2861 2900 2906 2874 2818 2768 2719 2680 2646 2706 2744 2748 2729 2696 2652 2690 2718 2700 2588 2368 2144 1909 1734 1681 1662 1635 1598 1533 1455 1417 1456 1554 1695 1848 2003 2115 2169 2212
2408 2320 2254 2122 1890 1799 1454 1372 1369 1621 2110 1750 1686 1804 2075 2518 2675 2625 2562 2545 2525 2525 2556 2695 2868 2996 3081 3108 3095 3054 2980 2907 2866 2885 2915 2922 2914 2898 2882 2915 3019 3103 3137 3093 2979 2802 2605 2306 2018 1734 1626 1612 1590 1539 1503 1490 1530 1672 1812 1933 2052 2137 2209
2906 3048 3155 3098 2907 2689 2620 2685 2900 3113 2698 2650 2514 2418 2473 2871 3030 2977 2926 2876 2817 2776 2756 2783 2925 3073 3210 3308 3315 3334 3272 3178 3111 3098 3109 3105 3090 3075 3067 3163 3270 3364 3390 3376 3312 3193 3009 2834 2624 2352 2033 1700 1581 1565 1560 1536 1507 1533 1683 1880 2029 2136 2223
3245 3191 3161 3194 3285 3291 3214 3174 3186 3192 3167 3152 3078 3036 2915 3034 3213 3250 3244 3159 3077 3019 2983 2972 3010 3104 3274 3418 3479 3525 3536 3488 3434 3375 3341 3321 3265 3248 3292 3382 3470 3534 3560 3568 3519 3448 3323 3176 2988 2765 2503 2222 1902 1576 1587 1567 1540 1533 1542 1613 1841 2033 2200
3183 3141 3124 3195 3276 3329 3372 3383 3423 3511 3609 3692 3681 3399 3372 3330 3406 3481 3460 3455 3396 3344 3281 3236 3190 3135 3092 3202 3378 3669 3700 3715 3697 3658 3603 3544 3452 3463 3502 3556 3630 3689 3712 3714 3685 3633 3545 3402 3253 3099 2926 2715 2469 2192 1814 1596 1599 1588 1595 1596 1599 1778 1970
2750 2830 2870 2884 3022 3241 3378 3412 3427 3508 3645 3750 3769 3780 3648 3711 3668 3681 3665 3626 3622 3609 3552 3552 3548 3559 3616 3626 3661 3667 3710 3844 3839 3817 3766 3719 3676 3625 3659 3726 3772 3791 3818 3824 3802 3766 3721 3618 3496 3343 3198 3057 2883 2651 2433 2150 1857 1791 1788 1781 1764 1751 1864
2879 3078 3068 3063 3316 3154 3417 3641 3631 3700 3726 3637 3641 3710 3772 3823 3825 3809 3818 3794 3889 3790 3753 3726 3769 3817 3821 3861 3868 3855 3857 3835 3931 3932 3916 3873 3844 3846 3845 3856 3870 3883 3914 3903 3886 3858 3824 3743 3658 3543 3437 3318 3185 2984 2814 2607 2407 2215 2147 2164 2144 2126 2109
2757 2963 3139 3225 3147 2989 2872 2946 3176 3389 3446 3569 3513 3583 3701 3772 3886 3866 3817 3852 3945 3844 3880 3850 3894 3954 4007 4035 4053 4040 4046 4037 4003 3964 3936 3994 3985 3938 3966 3976 3994 4010 3995 3991 3978 3935 3896 3860 3766 3670 3576 3500 3384 3230 3085 2932 2779 2628 2455 2427 2514 2522 2533
2602 2840 3053 3188 3211 3114 2990 2933 2946 3030 3120 3221 3372 3491 3504 3570 3589 3648 3734 3966 4276 4494 4380 4086 3898 3724 3737 3744 3860 4027 4113 4139 4124 4099 4074 4052 4041 4059 4096 4105 4112 4088 4073 4066 4028 3996 3973 3905 3830 3760 3712 3656 3557 3447 3306 3208 3117 3016 2915 2785 2644 2742 2838
2403 2562 2689 2844 2980 2984 2907 2894 2844 2746 2696 2798 2870 3021 3260 3374 3594 3583 3620 3863 4118 4512 4817 4687 4479 4087 3822 3710 3648 3663 3830 3962 4038 4054 4085 4111 4130 4164 4183 4188 4177 4176 4164 4126 4092 4064 4006 3951 3876 3839 3801 3734 3664 3594 3506 3422 3365 3310 3271 3175 3053 2882 2780
2011 2267 2350 2379 2438 2550 2721 2721 2640 2509 2427 2466 2557 2630 2778 2934 3155 3471 3854 3941 4140 4276 4664 4847 4728 4679 4210 3803 3590 3580 3651 3971 4113 4161 4177 4199 4207 4214 4225 4240 4237 4239 4225 4173 4149 4093 4036 4002 3954 3916 3864 3825 3798 3750 3717 3679 3636 3577 3533 3449 3326 3180 3042
1840 2191 2355 2378 2366 2426 2349 2320 2258 2286 2366 2389 2411 2498 2596 2714 2844 3040 3676 4114 4146 4196 4514 4910 4943 4764 4666 4393 3919 3628 3560 3944 4175 4293 4310 4302 4314 4311 4311 4300 4301 4288 4251 4214 4169 4121 4096 4060 4019 3988 3965 3965 3937 3954 3928 3926 3890 3845 3811 3698 3620 3530 3410
1271 1867 2263 2378 2373 2309 2219 2196 2202 2158 2135 2077 2041 2203 2381 2450 2502 2706 3013 3751 4173 4235 4336 4689 4992 4894 4695 4557 4426 4129 3710 3883 4515 4550 4470 4493 4496 4496 4459 4434 4397 4352 4333 4282 4228 4207 4186 4172 4137 4114 4113 4108 4137 4168 4184 4176 4147 4141 4100 4037 3958 3904 3832
817 1114 1777 2132 2316 2302 2228 2071 2136 2132 2100 1975 1922 1988 2139 2243 2328 2435 2602 2905 3548 4025 4328 4538 4820 5034 4792 4468 4234 4243 4107 3901 4363 4556 4593 4636 4688 4707 4674 4648 4542 4532 4502 4449 4417 4382 4357 4298 4252 4259 4267 4304 4345 4376 4407 4418 4420 4427 4345 4305 4274 4196 4117
240 677 897 1626 2038 2214 2187 2076 1974 1963 1949 1950 1912 1924 2005 2098 2136 2218 2336 2657 2986 3392 3850 4461 4710 4947 4940 4633 4367 4137 4034 4082 4535 4586 4564 4552 4617 4642 4710 4736 4768 4760 4679 4713 4676 4636 4646 4609 4612 4585 4549 4555 4609 4631 4675 4684 4642 4529 4504 4454 4382 4303 4185
40 200 585 930 1652 1947 2004 1975 1918 1876 2012 2010 1910 1834 1872 2012 2070 2089 2241 2516 2637 2839 3226 3877 4537 4857 5021 4891 4706 4397 4208 4348 4564 4554 4523 4537 4513 4543 4603 4554 4712 4865 4930 4936 4942 4980 4944 4951 4937 4930 4933 4914 4893 4802 4765 4752 4701 4607 4511 4419 4363 4254 4159
6 66 602 728 1197 1725 1785 1838 1868 1816 1839 1964 1707 1781 1904 1898 1883 1943 2274 2635 2853 3039 3224 3670 4195 4668 4956 4975 4882 4728 4515 4483 4507 4502 4547 4522 4501 4489 4487 4549 4551 4580 4889 5076 5158 5145 5198 5157 5134 5116 5105 5090 5032 4984 4869 4734 4709 4669 4511 4398 4265 4187 4096
Wind_Speed
nan 3 4 6 9 6 3 5 9 9 10 11 10 10 8 6 6 8 7 6 4 3 2 1 0 2 1 3 3 3 4 5 8 7 8 8 8 9 9 9 9 10 9 7 7 7 7 4 6 8 7 8 10 11 12 13 13 14 15 15 15 16 17
nan 3 5 8 7 2 1 2 5 6 7 9 9 11 9 7 6 6 6 5 4 3 1 2 1 2 2 4 6 5 6 7 8 9 10 10 10 10 9 9 8 8 8 8 7 5 2 3 4 5 6 7 8 8 9 11 12 13 13 14 15 16 16
nan 5 9 10 6 3 2 2 3 6 8 8 10 10 10 9 7 5 5 5 4 3 3 2 2 3 5 6 6 6 7 9 9 8 8 8 7 8 9 9 9 8 7 7 5 3 2 1 2 3 4 5 5 5 6 8 9 11 11 13 14 15 16
nan 4 7 7 4 1 1 2 4 4 5 9 11 11 10 9 7 5 5 4 4 3 2 3 3 5 6 6 6 7 7 9 9 9 9 10 9 10 10 10 10 9 7 5 4 3 1 0 1 1 2 2 3 3 4 5 6 8 10 11 12 14 15
nan 3 7 8 6 8 8 6 4 3 6 9 10 10 9 8 7 6 4 3 3 2 2 4 7 7 8 6 8 10 9 9 11 11 11 12 11 11 10 8 8 7 6 7 6 5 3 2 2 2 1 2 2 2 4 5 6 7 9 11 12 12 13
6 1 4 5 6 7 7 4 3 3 6 9 10 9 7 7 6 6 4 3 2 3 6 7 5 6 6 6 8 10 11 12 12 12 12 12 11 10 9 9 8 8 8 6 6 5 4 4 3 4 3 3 4 4 4 5 6 8 9 10 11 12 12
nan 8 5 6 8 10 8 6 5 3 3 5 8 8 6 4 5 5 5 2 2 4 5 5 4 4 6 7 7 9 9 11 12 12 13 13 11 10 10 10 9 8 8 10 7 6 5 5 4 5 4 5 5 5 6 7 8 9 10 10 10 11 12
15 13 9 9 9 10 11 10 7 5 6 8 9 9 6 4 5 5 4 3 3 4 4 4 4 5 6 8 8 7 9 10 12 13 14 12 12 11 11 10 10 9 11 8 7 7 5 5 6 6 6 5 5 6 7 7 8 10 11 11 10 11 12
12 13 13 10 8 9 12 12 9 9 8 8 8 9 7 5 5 4 3 4 4 2 1 3 4 6 8 8 7 7 9 10 12 12 11 10 11 11 10 11 10 11 9 9 9 9 7 6 6 6 6 5 6 6 7 7 8 9 11 12 12 12 11
10 10 11 11 8 9 13 15 15 15 11 9 9 10 6 3 5 6 4 4 4 1 2 5 7 8 9 8 8 7 8 9 11 10 9 8 10 10 10 11 11 10 10 10 10 8 7 6 5 5 5 5 5 6 6 7 8 8 10 11 12 12 12
12 10 13 15 12 12 18 21 19 15 10 9 9 8 6 5 5 6 5 4 4 4 4 6 8 8 8 8 7 8 8 8 9 8 7 8 10 9 10 9 10 11 10 10 8 6 7 6 6 4 4 4 5 6 7 7 8 9 9 9 10 11 11
14 15 15 19 17 17 19 20 18 15 11 10 10 8 6 5 6 6 5 3 5 7 8 8 9 8 8 8 8 8 7 8 9 8 8 8 9 9 9 9 9 10 9 8 5 5 5 5 5 5 4 4 4 5 6 7 7 9 10 10 9 9 9
17 20 21 23 22 20 21 22 19 15 11 9 8 7 6 6 6 6 6 6 8 9 9 9 9 8 8 8 7 8 6 6 7 8 9 9 10 10 10 9 8 8 7 7 5 4 4 4 4 5 5 4 4 5 6 6 7 8 9 9 10 9 9
18 20 24 27 27 25 22 20 20 18 12 9 8 8 8 7 6 5 5 6 8 9 10 11 10 10 9 9 8 7 7 8 10 11 11 12 12 11 9 9 9 8 8 8 5 4 4 4 4 4 5 4 5 5 5 5 6 8 9 10 10 10 8
14 15 22 25 25 24 22 21 21 17 13 10 9 9 9 9 8 7 8 10 10 10 9 10 10 9 9 8 8 9 11 13 14 14 13 12 12 10 10 10 10 10 9 8 7 7 5 5 5 4 3 3 4 5 5 5 6 7 9 10 10 10 9
10 12 17 21 23 22 21 20 19 15 13 11 9 9 10 10 8 4 3 5 6 7 10 12 10 10 9 8 9 11 12 12 13 13 12 11 9 9 10 11 11 10 9 9 8 8 7 6 6 4 3 3 4 4 4 5 6 8 13 12 10 9 7
6 8 12 17 20 22 22 21 17 16 15 12 9 9 9 9 7 4 2 4 6 7 9 10 10 9 9 9 11 12 13 13 12 12 10 9 10 10 10 10 11 11 10 10 9 8 8 7 5 5 4 4 4 3 4 4 5 10 12 13 13 9 7
4 6 10 14 18 23 25 23 22 20 16 13 11 10 11 11 10 7 4 4 4 6 9 8 9 8 9 10 12 12 11 11 11 10 9 10 9 9 10 11 11 10 10 10 9 9 9 7 6 6 5 5 4 3 3 4 5 9 11 12 12 10 6
3 5 8 13 19 22 23 22 20 18 15 14 13 11 10 11 10 6 6 6 6 8 8 8 8 9 9 9 9 8 7 8 7 6 6 6 7 8 10 9 8 8 10 9 10 12 9 7 7 6 6 5 4 3 3 4 6 8 9 10 10 10 8
7 6 9 13 18 20 21 23 24 21 16 14 13 11 12 12 9 7 7 8 9 7 9 9 10 9 8 7 7 6 5 5 4 3 3 4 4 5 5 5 5 7 9 10 11 10 8 8 6 6 6 5 4 4 4 4 6 9 9 8 8 8 7
16 14 14 18 21 22 22 23 23 23 22 20 18 20 20 18 17 19 19 16 11 9 10 10 10 9 8 7 6 6 5 4 4 3 2 1 1 1 0 1 2 5 7 8 8 8 9 9 8 7 6 5 5 5 4 5 6 8 8 7 7 7 6
21 21 22 24 26 27 26 25 23 20 19 23 26 26 23 21 23 22 19 18 14 13 12 11 11 10 10 9 7 6 5 4 4 3 2 1 1 1 2 1 2 3 4 5 6 7 9 9 9 7 6 6 6 5 4 6 6 8 7 7 6 8 9
26 25 27 29 30 30 30 30 31 31 33 32 30 28 26 28 26 24 23 21 18 16 15 13 12 11 11 10 8 7 6 5 4 3 3 3 2 1 1 1 2 2 5 4 4 6 7 8 10 10 9 9 8 6 5 7 7 7 8 8 10 13 11
32 31 30 30 32 33 33 33 33 33 34 35 35 33 33 31 29 27 25 21 21 20 18 15 12 12 12 11 11 10 9 7 6 5 5 5 5 4 4 4 4 5 8 7 6 6 7 10 11 12 12 10 9 7 7 9 9 9 9 12 15 15 12
37 35 33 32 31 32 34 36 37 38 41 42 42 38 33 31 29 27 24 22 22 21 19 16 15 15 14 14 14 12 11 10 8 7 8 8 8 8 8 7 8 8 10 10 9 8 10 12 12 13 13 12 11 9 8 11 12 11 11 14 16 14 12
40 39 37 33 32 30 29 32 40 44 45 47 44 43 40 36 32 28 26 25 25 23 20 18 18 18 19 18 16 14 13 13 12 11 11 11 11 12 11 11 11 11 12 12 12 11 12 12 13 13 14 16 15 15 13 14 15 15 14 15 16 15 14
40 40 40 37 34 30 31 32 36 38 41 42 44 45 46 44 42 39 37 34 30 24 25 28 28 26 24 21 20 18 17 17 16 14 14 15 14 14 15 15 15 14 14 14 14 13 12 12 12 11 12 15 17 18 17 18 16 15 16 16 16 15 14
43 43 41 40 38 34 32 32 32 34 37 40 45 48 48 48 48 45 45 42 38 37 37 35 33 32 31 29 25 23 21 20 20 18 19 19 20 19 18 18 18 17 17 17 16 14 12 12 12 11 9 11 14 16 17 18 14 17 17 18 18 16 15
45 44 42 42 41 36 34 34 34 33 32 35 42 46 49 51 51 48 47 48 43 41 39 36 35 33 31 31 29 28 25 24 22 23 24 23 23 22 21 21 21 21 21 20 18 16 14 13 13 12 9 9 11 14 16 18 18 14 18 19 18 17 15
44 44 43 41 39 36 36 36 33 32 32 34 38 42 46 50 50 50 51 49 44 42 39 37 37 36 34 32 30 29 28 27 26 26 26 25 26 25 24 25 24 25 25 24 22 20 17 16 16 14 12 11 11 13 16 19 20 19 16 18 18 18 18
42 43 42 40 39 38 38 37 33 31 32 34 37 39 42 44 47 49 51 47 45 46 44 40 38 37 35 34 33 32 31 31 30 28 28 28 28 28 28 28 29 28 29 29 27 24 21 20 20 17 16 15 13 13 16 19 22 23 20 17 19 19 19
45 43 43 41 40 39 38 38 35 32 31 33 35 36 36 38 41 43 41 41 44 45 46 44 41 39 36 36 36 35 36 34 32 31 31 32 32 31 31 31 32 31 32 31 30 28 26 24 24 21 20 19 17 16 16 19 23 27 30 28 26 24 20
47 45 43 42 40 38 39 39 37 35 33 34 33 33 33 33 35 35 35 39 41 43 46 46 44 42 41 40 39 40 39 36 36 36 36 37 37 36 35 35 34 34 34 33 32 32 30 29 27 26 25 23 22 21 21 23 25 27 29 30 30 29 29
50 48 46 43 42 40 39 39 38 36 35 34 32 31 31 31 32 32 33 35 37 40 44 47 45 43 42 41 42 41 40 38 37 39 39 39 39 37 37 37 37 35 34 34 35 35 34 32 30 29 29 26 26 26 28 27 25 26 27 29 30 32 33
52 49 46 46 43 41 40 38 38 36 36 35 33 34 33 31 30 29 30 30 32 35 40 43 44 43 43 43 42 41 41 39 39 38 40 43 45 44 43 41 40 41 41 43 42 37 35 33 32 30 30 30 30 31 29 30 27 24 29 30 32 34 35
53 51 49 46 43 41 40 39 38 38 38 38 38 38 38 35 32 30 29 29 29 31 35 37 38 39 39 41 40 40 39 38 36 37 36 36 37 38 41 44 44 41 38 39 40 41 36 37 33 32 32 33 35 35 32 29 30 41 43 42 43 43 43
nan 52 50 49 47 45 42 40 39 39 40 40 40 40 38 37 34 33 31 30 29 30 31 32 32 32 33 34 33 33 32 32 32 32 32 32 32 34 36 36 40 46 44 40 40 41 42 36 33 34 35 36 38 43 49 51 51 49 47 48 48 49 49
nan nan 48 48 46 44 43 41 39 38 37 36 37 37 37 38 38 36 34 31 31 31 32 32 31 29 29 30 30 31 31 31 31 31 31 31 31 33 34 35 36 38 44 44 44 46 45 44 43 42 42 42 44 45 46 52 54 52 51 51 52 52 52
Wind_Direction
nan 323 260 260 260 271 331 354 352 354 6 10 6 356 340 312 285 263 256 260 271 242 188 179 220 209 214 191 190 191 164 174 192 187 175 159 151 151 149 146 136 128 131 122 105 83 75 60 46 45 40 39 35 28 26 31 34 33 31 30 28 28 29
nan 267 236 235 244 240 110 328 330 350 2 3 358 354 344 325 284 267 264 266 278 279 214 160 192 199 206 193 189 182 173 176 193 189 180 173 165 162 162 153 143 136 130 122 116 113 117 63 41 41 38 34 36 29 20 19 24 23 21 21 19 21 21
nan 224 225 227 231 203 141 238 328 354 354 351 350 350 352 338 308 291 265 257 262 238 202 161 177 211 209 201 193 180 178 184 190 189 183 175 165 163 170 165 159 151 132 138 144 145 141 51 51 42 34 32 33 22 13 6 6 6 7 7 8 9 10
nan 203 232 246 255 196 195 308 344 330 328 346 350 349 348 343 314 275 258 266 268 229 193 170 195 216 216 207 194 190 184 185 186 183 179 181 180 182 180 173 172 173 170 146 157 186 189 305 15 17 16 24 24 2 337 350 345 344 345 346 354 358 359
nan 141 221 229 218 197 201 212 228 291 337 348 344 335 341 342 320 278 249 259 280 284 203 209 199 206 210 209 200 197 193 193 188 182 181 183 188 192 184 178 178 177 169 179 189 199 212 228 238 266 286 310 333 308 324 318 324 322 323 326 335 340 346
341 259 212 237 239 225 225 242 275 320 332 337 336 325 325 339 326 308 277 266 261 234 222 220 207 208 211 207 206 205 204 198 192 186 184 186 193 193 190 188 188 185 190 184 199 200 217 228 247 263 285 287 302 307 302 305 312 311 315 313 320 324 330
nan 317 295 280 275 266 259 254 260 271 302 322 297 282 283 316 335 297 253 233 256 265 248 235 220 214 206 215 209 215 214 208 201 191 190 189 189 192 196 199 196 194 190 204 198 212 224 239 255 270 286 296 300 310 310 311 314 309 308 311 316 317 322
306 304 304 297 295 281 260 253 257 245 242 249 262 268 295 320 309 291 266 230 225 236 234 241 218 201 212 215 213 216 214 213 209 203 198 191 188 190 197 199 198 197 204 202 203 221 231 249 256 268 288 297 308 311 313 314 319 312 309 317 322 324 315
302 307 303 297 295 279 258 250 253 255 269 283 293 285 291 302 316 296 263 233 215 229 228 225 208 201 210 212 215 214 214 218 217 214 206 195 190 189 194 197 198 200 198 200 212 220 231 248 265 277 290 300 308 313 313 320 321 315 316 324 330 333 328
277 279 287 287 275 254 248 243 239 239 244 252 257 258 269 284 292 274 244 217 201 154 221 215 202 199 200 200 204 213 215 215 217 220 213 199 194 193 195 198 200 201 198 205 213 222 228 241 258 269 287 304 311 317 319 324 327 325 325 332 333 335 338
253 262 271 270 251 227 227 233 239 243 251 259 265 263 254 265 279 271 256 218 187 173 203 206 203 201 198 202 207 211 209 209 211 209 204 198 200 199 202 200 202 205 206 212 211 214 229 233 244 259 277 295 317 323 323 331 329 328 331 331 330 334 333
236 240 247 259 255 231 228 235 243 246 245 243 253 253 243 259 270 259 242 217 193 196 202 201 204 200 203 207 211 210 209 203 201 196 195 198 202 205 208 208 209 213 213 220 218 223 232 246 250 262 281 293 307 308 311 313 320 328 331 332 328 326 326
235 236 234 241 241 230 224 227 240 246 242 240 249 241 229 244 256 242 225 214 207 200 200 203 205 203 206 210 209 206 199 195 192 196 197 202 205 209 210 211 216 221 221 227 228 240 244 253 263 259 271 289 289 295 305 312 318 324 326 326 324 325 326
237 235 224 222 223 225 224 228 235 238 233 227 224 219 215 219 220 219 223 221 212 207 203 200 202 202 204 206 199 189 182 184 193 199 204 206 209 209 207 208 213 216 216 223 230 238 251 261 268 267 274 297 295 299 294 307 316 322 326 327 329 327 329
242 232 221 219 219 218 218 225 229 232 229 222 220 214 212 207 195 198 210 211 206 204 202 206 206 204 203 200 192 185 190 195 199 204 209 212 213 208 203 205 208 211 212 217 222 225 234 248 260 269 283 288 294 298 301 311 322 318 326 332 337 335 339
236 227 223 226 223 216 217 227 230 229 230 221 218 215 210 198 186 187 237 229 219 209 205 209 203 203 201 195 192 196 199 203 207 212 217 217 215 210 207 207 209 210 213 218 223 227 235 244 257 267 278 280 286 287 294 313 309 339 358 350 338 337 336
216 224 231 233 226 219 221 227 224 222 225 220 216 217 206 189 168 162 205 212 207 204 205 206 203 198 196 191 198 202 204 206 208 214 217 215 213 214 214 214 216 215 219 224 229 236 245 252 263 268 265 282 288 301 306 311 314 359 353 360 4 347 335
207 221 236 235 229 224 224 224 218 216 217 210 207 208 196 185 178 173 135 135 152 186 197 193 193 188 183 188 200 204 206 205 209 209 208 213 210 215 218 220 222 225 229 235 241 247 252 263 272 268 268 267 283 305 312 308 342 356 355 357 3 1 350
275 276 264 240 229 228 229 228 224 221 215 207 203 198 189 190 182 143 122 119 142 176 166 161 166 165 166 180 192 195 195 195 197 192 198 205 211 217 224 229 234 241 246 252 253 252 261 270 270 276 276 278 294 304 303 294 338 350 356 355 0 8 9
243 269 260 237 232 233 227 222 220 216 213 211 203 196 197 191 163 144 162 180 189 166 154 155 153 153 156 171 171 167 166 167 158 154 165 195 213 224 234 245 260 264 263 259 261 267 269 268 275 269 266 273 280 275 273 294 323 340 352 355 0 7 354
220 219 225 220 216 215 216 223 225 218 211 206 199 196 199 187 176 189 198 201 194 174 166 159 157 157 163 168 160 157 159 157 146 138 154 175 215 219 92 333 276 283 276 274 277 274 266 262 258 254 255 259 262 260 269 271 317 322 341 348 352 355 321
219 224 223 212 211 209 212 213 217 217 210 205 203 201 200 194 196 202 201 201 197 192 185 178 169 166 174 177 176 171 174 181 172 164 180 205 213 74 70 53 350 329 293 280 274 264 256 253 254 256 256 253 247 244 246 253 292 310 322 327 332 317 268
223 225 224 216 212 209 210 211 208 203 200 200 201 204 203 204 206 206 206 204 199 201 199 192 181 179 184 185 192 196 199 207 209 210 230 246 260 293 303 303 322 299 272 279 281 276 274 265 261 255 250 249 244 237 233 245 269 291 301 305 310 280 257
220 220 221 222 215 210 210 210 208 203 203 202 202 204 206 208 210 210 208 202 202 205 202 198 189 192 196 196 204 210 213 218 230 240 254 260 275 285 283 285 279 287 277 283 281 279 275 262 255 257 257 258 254 245 233 242 256 279 287 300 298 290 268
219 219 217 216 219 217 212 211 212 208 204 204 204 200 208 213 215 214 209 204 204 205 202 195 196 201 204 208 213 217 223 229 238 246 257 267 272 273 281 286 288 285 279 281 280 276 266 264 261 261 259 260 258 257 249 243 255 281 290 295 294 285 254
215 215 215 215 216 216 216 216 218 214 211 209 205 203 207 213 215 215 214 211 211 209 202 199 203 205 209 214 218 222 229 236 247 251 254 261 264 263 268 269 268 272 277 279 279 277 274 273 270 269 262 257 254 250 248 246 251 265 289 289 291 297 263
212 209 211 213 218 218 222 219 218 217 214 210 209 209 212 215 215 212 212 213 212 208 206 206 208 210 211 214 218 222 229 234 243 253 254 257 261 263 263 264 267 272 277 279 277 279 280 288 286 280 268 258 252 246 245 246 249 257 284 288 292 295 283
207 208 207 210 215 218 224 224 222 218 214 210 212 214 215 219 220 217 217 216 210 205 208 210 213 216 217 219 221 224 228 231 232 240 246 252 255 255 256 258 263 267 274 272 273 280 287 290 296 295 282 267 260 250 243 243 255 249 269 288 292 291 297
207 208 209 209 214 214 221 224 222 219 215 208 209 212 215 221 222 219 219 219 211 206 207 208 211 217 223 224 225 225 227 228 232 234 237 244 255 260 261 260 262 263 265 268 269 272 274 279 286 293 291 279 274 262 247 237 239 258 258 279 293 294 292
210 210 212 211 213 214 216 221 219 218 214 209 207 208 211 217 220 219 219 216 210 209 210 209 211 216 218 222 226 227 226 228 230 232 233 240 247 253 257 260 261 261 262 264 265 264 268 267 271 279 285 284 276 267 251 238 234 244 265 269 288 288 296
214 213 214 212 210 210 211 216 219 217 213 209 209 208 209 211 216 218 218 214 213 210 210 210 212 216 218 219 220 223 226 230 232 233 234 236 241 244 247 250 255 257 258 260 260 260 263 263 265 270 276 278 277 269 256 244 241 241 252 269 274 283 289
215 214 215 213 209 206 208 212 217 217 214 208 206 209 211 212 215 217 214 214 214 212 209 209 212 214 215 218 220 222 224 228 230 233 235 237 236 238 240 245 249 252 254 259 261 262 261 260 261 262 266 271 274 270 262 252 248 248 246 249 255 258 267
215 215 216 213 207 208 210 213 217 217 214 210 203 204 206 211 214 216 214 214 213 213 211 211 214 214 215 217 218 221 224 228 230 231 233 235 235 236 237 240 243 246 250 254 258 260 260 259 258 257 259 263 267 267 264 257 253 254 253 254 258 259 262
214 214 213 213 210 212 215 217 220 220 218 214 208 207 207 206 207 210 213 214 214 215 216 215 216 218 219 221 223 225 227 228 232 236 235 236 237 238 238 241 242 245 248 252 254 257 257 258 257 257 258 258 260 264 264 262 258 255 257 259 261 262 263
214 216 214 211 210 215 219 219 223 224 224 220 215 214 212 209 206 206 210 212 216 218 219 219 219 220 221 225 228 229 230 232 234 237 240 237 236 235 234 234 237 240 242 243 245 250 254 256 255 255 255 256 257 260 262 260 262 260 255 257 262 268 269
216 215 214 212 214 217 221 223 225 227 226 222 219 218 216 212 209 208 209 211 215 219 222 221 222 225 225 226 229 232 235 237 238 239 243 245 246 246 240 238 241 238 241 244 239 240 242 248 254 254 253 254 249 251 261 265 263 260 260 258 258 256 258
nan 215 213 214 218 219 220 222 226 227 225 221 220 221 221 219 216 213 212 214 216 220 222 224 225 228 230 232 233 233 237 241 242 243 245 247 249 248 250 247 239 237 238 241 243 244 241 246 246 252 254 256 252 242 246 256 259 261 261 262 263 264 263
nan nan 215 216 220 224 224 223 225 229 229 228 228 228 228 226 223 220 216 215 218 222 225 227 228 230 231 235 238 241 241 245 249 252 252 250 250 252 253 252 250 242 237 240 243 243 243 240 244 252 257 260 261 257 245 252 260 265 265 264 264 266 268